TimeCST,TemperatureF,Dew PointF,Humidity,Sea Level PressureIn,VisibilityMPH,Wind Direction,Wind SpeedMPH,Gust SpeedMPH,PrecipitationIn,Events,Conditions,WindDirDegrees,DateUTC
12:55 AM,21.9,19.0,89,29.93,10.0,SSE,4.6,-,N/A,,Clear,150,2013-01-08 06:55:00
1:55 AM,21.0,19.0,92,29.90,10.0,SSE,6.9,-,N/A,,Clear,150,2013-01-08 07:55:00
2:55 AM,21.0,18.0,88,29.90,10.0,SSE,6.9,-,N/A,,Clear,160,2013-01-08 08:55:00
3:55 AM,19.9,17.1,89,29.88,10.0,SSE,8.1,-,N/A,,Clear,150,2013-01-08 09:55:00
4:55 AM,21.9,18.0,85,29.85,10.0,SSE,10.4,-,N/A,,Clear,160,2013-01-08 10:55:00
5:55 AM,23.0,19.0,85,29.85,10.0,SSE,12.7,-,N/A,,Clear,160,2013-01-08 11:55:00
6:55 AM,24.1,19.9,84,29.83,10.0,SSE,9.2,-,N/A,,Overcast,150,2013-01-08 12:55:00
7:55 AM,24.1,19.9,84,29.80,9.0,SSE,12.7,-,N/A,,Overcast,150,2013-01-08 13:55:00
8:55 AM,24.1,21.0,88,29.76,7.0,SSE,9.2,-,N/A,,Clear,150,2013-01-08 14:55:00
9:55 AM,26.1,21.9,84,29.78,8.0,SSE,5.8,-,N/A,,Overcast,160,2013-01-08 15:55:00
10:55 AM,26.1,21.9,84,29.78,8.0,South,10.4,-,N/A,,Mostly Cloudy,170,2013-01-08 16:55:00
11:55 AM,28.0,23.0,81,29.77,9.0,South,9.2,-,N/A,,Clear,180,2013-01-08 17:55:00
12:55 PM,30.0,24.1,79,29.76,10.0,SSW,4.6,-,N/A,,Clear,210,2013-01-08 18:55:00
1:55 PM,34.0,26.1,73,29.77,10.0,SW,4.6,-,N/A,,Clear,230,2013-01-08 19:55:00
2:55 PM,37.0,28.9,73,29.79,10.0,WNW,5.8,-,N/A,,Clear,290,2013-01-08 20:55:00
3:55 PM,36.0,30.0,79,29.84,10.0,West,10.4,-,N/A,,Clear,280,2013-01-08 21:55:00
4:55 PM,36.0,28.9,76,29.88,10.0,WSW,5.8,-,N/A,,Clear,250,2013-01-08 22:55:00
5:55 PM,34.0,28.0,79,29.90,10.0,West,10.4,-,N/A,,Clear,260,2013-01-08 23:55:00
6:55 PM,34.0,28.0,79,29.92,10.0,WSW,9.2,-,N/A,,Partly Cloudy,250,2013-01-09 00:55:00
7:55 PM,36.0,28.9,76,29.95,10.0,West,12.7,-,N/A,,Mostly Cloudy,260,2013-01-09 01:55:00
8:55 PM,36.0,32.0,86,29.97,10.0,West,16.1,-,N/A,,Overcast,270,2013-01-09 02:55:00
9:55 PM,35.1,30.9,85,30.01,10.0,West,12.7,-,N/A,,Clear,270,2013-01-09 03:55:00
10:55 PM,34.0,30.0,85,30.05,10.0,WNW,13.8,-,N/A,,Scattered Clouds,290,2013-01-09 04:55:00
11:55 PM,34.0,30.0,85,30.08,10.0,West,12.7,-,N/A,,Clear,260,2013-01-09 05:55:00